Weather History for Glasgow, KY

Change the Weather History Date:

Saturday, February 23, 2013

  Actual Average Record
Temperature  
Mean Temperature 38 °F -  
Max Temperature 46 °F 53 °F 76 °F (1982)
Min Temperature 29 °F 33 °F 7 °F (1963)
Degree Days  
Heating Degree Days 27    
Moisture  
Dew Point 29 °F    
Average Humidity 70    
Maximum Humidity 88    
Minimum Humidity 45    
Precipitation  
Precipitation 0.00 in - - ()
Sea Level Pressure  
Sea Level Pressure 29.98 in    
Wind  
Wind Speed 3 mph (WNW)    
Max Wind Speed 8 mph    
Max Gust Speed -    
Visibility 10 miles    
Events      
Averages and records for this station are not official NWS values.
T = Trace of Precipitation, MM = Missing Value Source: NWS Daily Summary

Daily Weather History Graph

Daily Weather History Graph

Search for Another Location

Airport:

Trip Planner

Search our weather history database for the weather conditions in past years. The results will help you decide how hot, cold, wet, or windy it might be!

Date:

Astronomy

Feb. 23, 2013 Rise Set
Actual Time 6:22 AM CST 5:32 PM CST
Civil Twilight 5:56 AM CST 5:58 PM CST
Nautical Twilight 5:25 AM CST 6:28 PM CST
Astronomical Twilight 4:55 AM CST 6:58 PM CST
Moon 3:43 PM CST (2/23) 4:42 AM CST (2/23)
Length of Visible Light 12h 02m
Length of Day
11h 10m
Waxing Gibbous, 95% of the Moon is Illuminated
Feb 23
Waxing Gibbous
Feb 25
Full
Mar 4
Last Quarter
Mar 11
New
Mar 19
First Quarter

Hourly Weather History & Observations

Time (CST) Temp. Windchill Dew Point Humidity Pressure Visibility Wind Dir Wind Speed Gust Speed Precip Events Conditions
12:15 AM 40.5 °F 37.3 °F 35.8 °F 83% 30.02 in 10.0 mi WSW 4.6 mph - N/A   Scattered Clouds
12:35 AM 40.1 °F 38.0 °F 35.4 °F 83% 30.01 in 10.0 mi West 3.5 mph - N/A   Scattered Clouds
12:55 AM 39.4 °F 37.2 °F 35.1 °F 84% 30.01 in 10.0 mi West 3.5 mph - N/A   Scattered Clouds
1:15 AM 39.2 °F 35.0 °F 34.3 °F 83% 30.02 in 10.0 mi WNW 5.8 mph - N/A   Clear
1:35 AM 38.8 °F 36.5 °F 33.8 °F 82% 30.01 in 10.0 mi NW 3.5 mph - N/A   Clear
1:55 AM 38.1 °F 35.7 °F 33.6 °F 84% 30.01 in 10.0 mi West 3.5 mph - N/A   Clear
2:15 AM 37.2 °F 34.7 °F 33.3 °F 86% 30.01 in 10.0 mi WNW 3.5 mph - N/A   Clear
2:35 AM 36.7 °F 34.1 °F 33.3 °F 87% 30.01 in 10.0 mi WNW 3.5 mph - N/A   Clear
2:55 AM 36.7 °F 34.1 °F 33.4 °F 88% 30.00 in 10.0 mi West 3.5 mph - N/A   Mostly Cloudy
3:15 AM 37.4 °F - 34.0 °F 87% 30.00 in 10.0 mi Calm Calm - N/A   Overcast
3:35 AM 37.6 °F 35.1 °F 34.0 °F 87% 30.00 in 10.0 mi WNW 3.5 mph - N/A   Overcast
3:55 AM 37.2 °F 32.6 °F 33.4 °F 86% 30.00 in 10.0 mi WNW 5.8 mph - N/A   Overcast
4:15 AM 36.5 °F 32.7 °F 32.9 °F 87% 29.99 in 10.0 mi NW 4.6 mph - N/A   Overcast
4:35 AM 36.5 °F 32.7 °F 32.4 °F 85% 30.00 in 10.0 mi NW 4.6 mph - N/A   Overcast
4:55 AM 36.1 °F 30.6 °F 32.0 °F 85% 30.01 in 10.0 mi NW 6.9 mph - N/A   Overcast
5:15 AM 35.8 °F 29.4 °F 31.8 °F 86% 30.01 in 10.0 mi WNW 8.1 mph - N/A   Overcast
5:35 AM 35.4 °F 31.5 °F 31.3 °F 85% 30.01 in 10.0 mi NW 4.6 mph - N/A   Overcast
5:55 AM 35.1 °F 31.0 °F 30.7 °F 84% 30.01 in 10.0 mi NW 4.6 mph - N/A   Overcast
6:15 AM 34.9 °F 29.0 °F 30.2 °F 83% 30.02 in 10.0 mi WNW 6.9 mph - N/A   Overcast
6:35 AM 34.7 °F 30.6 °F 29.8 °F 82% 30.02 in 10.0 mi WNW 4.6 mph - N/A   Overcast
6:55 AM 34.7 °F 31.8 °F 30.0 °F 83% 30.01 in 10.0 mi NW 3.5 mph - N/A   Overcast
7:15 AM 34.7 °F 30.6 °F 29.8 °F 82% 30.02 in 10.0 mi NW 4.6 mph - N/A   Overcast
7:35 AM 34.7 °F 28.8 °F 29.8 °F 82% 30.02 in 10.0 mi North 6.9 mph - N/A   Overcast
7:55 AM 34.7 °F 30.6 °F 29.5 °F 81% 30.02 in 10.0 mi NW 4.6 mph - N/A   Overcast
8:15 AM 34.9 °F 32.0 °F 29.3 °F 80% 30.02 in 10.0 mi NW 3.5 mph - N/A   Overcast
8:55 AM 35.6 °F - 28.8 °F 76% 30.01 in 10.0 mi Calm Calm - N/A   Scattered Clouds
9:15 AM 36.0 °F - 28.6 °F 75% 30.00 in 10.0 mi Calm Calm - N/A   Scattered Clouds
9:35 AM 38.7 °F 36.3 °F 29.7 °F 70% 29.99 in 10.0 mi NNE 3.5 mph - N/A   Mostly Cloudy
9:55 AM 40.1 °F 36.9 °F 29.8 °F 67% 29.99 in 10.0 mi North 4.6 mph - N/A   Scattered Clouds
10:15 AM 41.0 °F - 30.0 °F 65% 29.99 in 10.0 mi Calm Calm - N/A   Clear
10:35 AM 41.9 °F 39.0 °F 30.2 °F 63% 29.99 in 10.0 mi West 4.6 mph - N/A   Clear
10:55 AM 42.8 °F 41.1 °F 30.2 °F 61% 29.99 in 10.0 mi North 3.5 mph - N/A   Clear
11:15 AM 43.3 °F 39.9 °F 30.0 °F 59% 29.99 in 10.0 mi WNW 5.8 mph - N/A   Clear
11:35 AM 43.0 °F - 30.0 °F 60% 29.98 in 10.0 mi Calm Calm - N/A   Clear
11:55 AM 43.3 °F 39.9 °F 29.7 °F 59% 29.97 in 10.0 mi North 5.8 mph - N/A   Clear
12:15 PM 43.2 °F - 29.7 °F 59% 29.96 in 10.0 mi Calm Calm - N/A   Clear
12:35 PM 43.0 °F - 29.3 °F 59% 29.96 in 10.0 mi Calm Calm - N/A   Clear
12:55 PM 43.7 °F - 29.7 °F 58% 29.96 in 10.0 mi Calm Calm - N/A   Clear
1:15 PM 44.1 °F 42.5 °F 29.3 °F 56% 29.95 in 10.0 mi SW 3.5 mph - N/A   Clear
1:35 PM 44.8 °F - 29.1 °F 54% 29.94 in 10.0 mi Calm Calm - N/A   Clear
1:55 PM 45.1 °F - 27.9 °F 51% 29.94 in 10.0 mi Calm Calm - N/A   Clear
2:15 PM 45.1 °F 42.0 °F 27.9 °F 51% 29.93 in 10.0 mi WNW 5.8 mph - N/A   Clear
2:35 PM 45.5 °F - 27.7 °F 50% 29.93 in 10.0 mi Calm Calm - N/A   Clear
2:55 PM 45.5 °F - 27.7 °F 50% 29.93 in 10.0 mi Calm Calm - N/A   Clear
3:15 PM 46.6 °F - 27.1 °F 47% 29.93 in 10.0 mi Calm Calm - N/A   Clear
3:35 PM 46.6 °F - 26.6 °F 46% 29.93 in 10.0 mi Calm Calm - N/A   Clear
3:55 PM 46.8 °F - 26.6 °F 45% 29.93 in 10.0 mi WSW 4.6 mph - N/A   Clear
4:15 PM 46.6 °F - 27.1 °F 47% 29.93 in 10.0 mi WSW 3.5 mph - N/A   Clear
4:35 PM 46.4 °F 44.3 °F 27.0 °F 47% 29.93 in 10.0 mi West 4.6 mph - N/A   Clear
4:55 PM 46.0 °F 44.8 °F 27.0 °F 47% 29.92 in 10.0 mi SW 3.5 mph - N/A   Clear
5:15 PM 45.0 °F - 26.6 °F 49% 29.91 in 10.0 mi Calm Calm - N/A   Clear
5:35 PM 42.6 °F - 26.2 °F 52% 29.92 in 10.0 mi Calm Calm - N/A   Clear
5:55 PM 41.2 °F 39.2 °F 26.6 °F 56% 29.92 in 10.0 mi West 3.5 mph - N/A   Clear
6:15 PM 40.1 °F 38.0 °F 26.8 °F 59% 29.93 in 10.0 mi WNW 3.5 mph - N/A   Clear
6:35 PM 39.0 °F 36.8 °F 26.6 °F 61% 29.93 in 10.0 mi WNW 3.5 mph - N/A   Clear
6:55 PM 38.3 °F 35.9 °F 26.6 °F 63% 29.93 in 10.0 mi NW 3.5 mph - N/A   Clear
7:15 PM 38.1 °F 34.6 °F 26.6 °F 63% 29.95 in 10.0 mi WNW 4.6 mph - N/A   Clear
7:35 PM 37.8 °F - 26.2 °F 63% 29.96 in 10.0 mi Calm Calm - N/A   Clear
7:55 PM 36.7 °F 32.9 °F 26.1 °F 65% 29.96 in 10.0 mi NW 4.6 mph - N/A   Clear
8:15 PM 36.9 °F 34.3 °F 25.3 °F 63% 29.96 in 10.0 mi NW 3.5 mph - N/A   Clear
8:35 PM 36.5 °F 33.9 °F 25.0 °F 63% 29.97 in 10.0 mi NNW 3.5 mph - N/A   Clear
8:55 PM 36.0 °F 33.3 °F 24.8 °F 64% 29.98 in 10.0 mi NNW 3.5 mph - N/A   Clear
9:15 PM 35.1 °F 32.2 °F 25.2 °F 67% 29.99 in 10.0 mi NNW 3.5 mph - N/A   Clear
9:35 PM 34.2 °F - 25.3 °F 70% 29.97 in 10.0 mi Calm Calm - N/A   Clear
9:55 PM 32.5 °F - 25.3 °F 75% 29.98 in 10.0 mi Calm Calm - N/A   Clear
10:15 PM 32.0 °F - 25.5 °F 77% 29.98 in 10.0 mi Calm Calm - N/A   Clear
10:35 PM 31.5 °F - 25.0 °F 77% 29.98 in 10.0 mi Calm Calm - N/A   Clear
10:55 PM 31.1 °F - 25.2 °F 79% 29.98 in 10.0 mi Calm Calm - N/A   Clear
11:15 PM 30.0 °F - 24.8 °F 81% 29.99 in 10.0 mi Calm Calm - N/A   Clear
11:35 PM 30.0 °F - 25.0 °F 82% 29.99 in 10.0 mi Calm Calm - N/A   Clear
11:55 PM 29.1 °F - 24.6 °F 83% 30.00 in 10.0 mi Calm Calm - N/A   Clear